Terminal Aerodrome Forecast
Issued by NWS Twin Cities, MN

Home | Current Version | Previous Version | Text Only | Print | Product List | Glossary Off
Versions: 1 2 3 4 5 6 7 8 9 10 11 12 13 14 15 16 17 18 19 20 21 22 23 24 25 26

000
FTUS43 KMPX 252324
TAFMSP
TAF
KMSP 252324Z 2600/2706 29016G25KT P6SM OVC035
     FM260400 29013G19KT P6SM SCT035
     FM260700 30011KT P6SM SKC
     FM261500 32012G20KT P6SM SCT050
     FM270000 35007KT P6SM SKC=

USA.gov is the U.S. government's official web portal to all federal, state and local government web resources and services.